[[{"header":{"parameterUnit":"m.s-1","parameterCategory":2,"la1":30.2991,"la2":30.254,"lo1":-89.0895,"lo2":-89.0444,"dy":0.0017,"dx":0.0017,"nx":28,"ny":28,"refTime":"2025-08-10T03:00:00:Z","depth":"0","parameterNumber":2,"parameterNumberName":"U-component_of_CURRENTS"},"data":[0,0,0,0,0,0,0,0,0,0,0,0,0,0,0,0,0,0,0,0,0,0,0,0,0,0,0,0,0,0,0,0,0,0,0,0,0,0,0,0,0,0,0,0,0,0,0,0,0,0,0,0,0,0,0,0,0,0,0.1481,0.1481,0,0.1486,0.1486,0.1486,0.1486,0.1486,0.1487,0.1487,0.1463,0.1462,0.1461,0,0,0,0,0,0,0,0,0,0,0,0,0,0.1461,0.1461,0.1481,0.1481,0.1481,0.1486,0.1486,0.1486,0.1486,0.1486,0.1487,0.1487,0.1463,0.1462,0.1461,0,0,0,0,0,0,0,0,0,0,0,0,0,0.1466,0.1461,0.148,0.1483,0.1484,0.1486,0.1486,0.1486,0.1486,0.1486,0.1487,0.1487,0.1463,0.1462,0.1461,0.145,0,0,0.1457,0.1457,0,0,0,0,0,0,0,0,0.1466,0.1466,0.1483,0.1483,0.1484,0.1488,0.147,0.1473,0.1486,0.1483,0.1487,0.1487,0.1469,0.1468,0.1466,0.1448,0.1447,0.1457,0.1457,0.1456,0.1456,0,0,0,0,0,0,0,0.1465,0.1466,0.148,0.1483,0.1484,0.1481,0.1482,0.1471,0.1473,0.1483,0.1484,0.1488,0.1469,0.1467,0.1465,0.1447,0.1457,0.1456,0.1456,0.1455,0.1443,0.1443,0,0,0,0,0,0,0.1469,0.1466,0.148,0.1481,0.1478,0.1482,0.1483,0.1484,0.1474,0.1473,0.1488,0.1488,0.1469,0.1466,0.1464,0.1473,0.1456,0.1455,0.1454,0.1442,0.1443,0.1443,0,0,0,0,0,0,0.1469,0.147,0.148,0.1475,0.1477,0.1482,0.1484,0.1484,0.1486,0.1478,0.1476,0.149,0.1469,0.1466,0.1461,0.1472,0.1455,0.1453,0.1442,0.1442,0.1443,0.1477,0,0,0,0,0,0,0.1468,0.147,0.1471,0.1476,0.1477,0.1486,0.1484,0.1484,0.1489,0.1489,0.1479,0.1477,0.1469,0.1463,0.146,0.147,0.1453,0.1441,0.1442,0.1443,0.1475,0.1478,0.1481,0,0,0,0,0,0.1467,0.1468,0.1471,0.1473,0.1479,0.1487,0.1487,0.149,0.1489,0.1492,0.1486,0.1477,0.1465,0.1462,0.1459,0.1468,0.1441,0.1442,0.1443,0.1474,0.1478,0.1481,0,0,0,0,0,0,0.1457,0.1469,0.1472,0.1476,0.1484,0.1488,0.149,0.1492,0.1489,0.1489,0.1478,0.1476,0.1477,0.1466,0.1463,0.1467,0.1453,0.1453,0.1478,0.1481,0.1484,0.1492,0.1452,0,0,0,0,0,0.1457,0.1462,0.1473,0.1475,0.1481,0.1486,0.1489,0.1492,0.1492,0.1492,0.1485,0.1478,0.1476,0.1474,0.1467,0.1465,0.1492,0.147,0.1473,0.1476,0.148,0.1523,0.1531,0.1446,0.1446,0.1446,0,0,0.1452,0.1461,0.1462,0.1474,0.1479,0.1487,0.1487,0.1495,0.1501,0.1488,0.149,0.1486,0.1478,0.1481,0.148,0.1474,0.152,0.1477,0.1479,0.1482,0.1525,0.1533,0.1541,0.1446,0.1446,0.1446,0,0,0.1448,0.1456,0.1459,0.1469,0.1483,0.1488,0.1492,0.1499,0.1504,0.1506,0.1503,0.1508,0.1496,0.15,0.1499,0.1513,0.1534,0.1509,0.153,0.1572,0.158,0.1587,0.1663,0.1676,0.1511,0.1511,0.1511,0,0.1442,0.145,0.1461,0.147,0.1479,0.149,0.1498,0.1504,0.1509,0.1519,0.151,0.1517,0.1507,0.1525,0.153,0.1521,0.156,0.1518,0.1578,0.1585,0.1592,0.1667,0.1682,0.1512,0.1512,0.1512,0.1512,0,0.1442,0.1451,0.1455,0.1471,0.1482,0.1491,0.1507,0.1517,0.1523,0.1533,0.1551,0.1546,0.1555,0.1552,0.1543,0.1583,0.1604,0.1579,0.1573,0.1603,0.168,0.1695,0.1515,0.1514,0.1514,0.1513,0,0,0.142,0.1449,0.145,0.1462,0.1485,0.1494,0.1512,0.1536,0.1557,0.1563,0.1595,0.159,0.1599,0.1598,0.1595,0.1624,0.171,0.1623,0.1624,0.1705,0.1839,0.19,0.1922,0.1699,0.1701,0.1702,0.1887,0,0.1416,0.1432,0.145,0.1467,0.1478,0.1502,0.1522,0.1547,0.1568,0.1602,0.1616,0.1638,0.1614,0.1626,0.1654,0.1695,0.1745,0.1665,0.179,0.1795,0.1851,0.1939,0.1883,0.2046,0.1901,0.1903,0.1905,0,0.1407,0.1423,0.1438,0.1475,0.1483,0.1496,0.154,0.156,0.1612,0.1632,0.1664,0.1682,0.1735,0.1701,0.1807,0.1761,0.1805,0.1834,0.1842,0.1894,0.1882,0.1984,0.2077,0.2009,0.1927,0.1925,0.1924,0,0.1384,0.1413,0.1426,0.1437,0.1478,0.1495,0.152,0.1568,0.1602,0.166,0.1706,0.1752,0.1808,0.185,0.1927,0.1872,0.2061,0.199,0.2093,0.2099,0.2074,0.2075,0.2118,0.2069,0.2069,0.2068,0.2068,0,0.1372,0.1381,0.1416,0.1424,0.145,0.1485,0.1521,0.1556,0.1623,0.1684,0.1725,0.18,0.1848,0.1959,0.1984,0.2124,0.2119,0.2133,0.2157,0.2088,0.2088,0.2043,0.2002,0.2075,0.2074,0.2072,0.2071,0,0.1342,0.1364,0.1381,0.1424,0.1438,0.1457,0.152,0.1554,0.1627,0.1715,0.1744,0.1874,0.2029,0.2109,0.2223,0.2234,0.2276,0.2369,0.2312,0.2325,0.2316,0.228,0.2284,0.2203,0.25,0.2503,0.2505,0,0.1327,0.1332,0.1372,0.1387,0.1406,0.1439,0.1469,0.1538,0.1591,0.1765,0.1823,0.201,0.2139,0.2372,0.2437,0.2552,0.2416,0.2549,0.2412,0.235,0.2326,0.2185,0.2102,0.2405,0.2407,0.2408,0.2408,0,0.1302,0.1315,0.1334,0.1365,0.1393,0.1425,0.1483,0.1525,0.1634,0.1741,0.1916,0.204,0.2298,0.242,0.2595,0.2627,0.2423,0.2574,0.2506,0.2273,0.2124,0.2046,0.2273,0.2418,0.2417,0.2416,0.2416,0.2415,0.1281,0.1288,0.1315,0.1343,0.1376,0.1414,0.1429,0.152,0.1618,0.1774,0.1929,0.2105,0.2327,0.2573,0.2603,0.2619,0.2533,0.2521,0.2496,0.2368,0.2238,0.2521,0.2685,0.2686,0.2686,0.2687,0.2687,0,0.1253,0.1269,0.1295,0.1325,0.1346,0.1377,0.1441,0.1461,0.1564,0.175,0.1903,0.2157,0.2328,0.2468,0.2599,0.2533,0.2351,0.2458,0.2207,0.2135,0.2402,0.2343,0.2444,0.2444,0.2444,0.2444,0.2444,0.2444,0.1241,0.1249,0.1264,0.1286,0.1309,0.1317,0.134,0.1396,0.1506,0.169,0.1845,0.2,0.2282,0.2507,0.251,0.2437,0.219,0.2144,0.2082,0.2242,0.2242,0.2242,0.2175,0.2239,0.2239,0.1695,0.1691,0.1688]},{"header":{"parameterUnit":"m.s-1","parameterCategory":2,"la1":30.2991,"la2":30.254,"lo1":-89.0895,"lo2":-89.0444,"dy":0.0017,"dx":0.0017,"nx":28,"ny":28,"refTime":"2025-08-10T03:00:00:Z","depth":"0","parameterNumber":3,"parameterNumberName":"V-component_of_CURRENTS"},"data":[0,0,0,0,0,0,0,0,0,0,0,0,0,0,0,0,0,0,0,0,0,0,0,0,0,0,0,0,0,0,0,0,0,0,0,0,0,0,0,0,0,0,0,0,0,0,0,0,0,0,0,0,0,0,0,0,0,0,-0.0078,-0.0078,0,-0.0127,-0.0128,-0.0128,-0.0161,-0.0162,-0.0162,-0.0162,-0.0224,-0.0225,-0.0227,0,0,0,0,0,0,0,0,0,0,0,0,0,-0.0043,-0.0043,-0.0078,-0.0078,-0.0079,-0.0127,-0.0128,-0.0128,-0.0161,-0.0162,-0.0162,-0.0162,-0.0223,-0.0225,-0.0227,0,0,0,0,0,0,0,0,0,0,0,0,0,-0.0072,-0.0044,-0.0078,-0.0101,-0.0104,-0.0127,-0.0128,-0.0128,-0.0161,-0.0162,-0.0162,-0.0162,-0.0223,-0.0225,-0.0227,-0.0234,0,0,-0.0234,-0.0235,0,0,0,0,0,0,0,0,-0.007,-0.0073,-0.0097,-0.0099,-0.0102,-0.0138,-0.0138,-0.0164,-0.0161,-0.014,-0.0162,-0.0162,-0.0196,-0.02,-0.0209,-0.0237,-0.024,-0.0234,-0.0235,-0.0236,-0.0237,0,0,0,0,0,0,0,-0.0068,-0.0072,-0.0098,-0.0098,-0.0101,-0.0119,-0.0124,-0.0143,-0.0166,-0.0142,-0.0144,-0.0149,-0.0198,-0.0207,-0.0211,-0.0241,-0.0234,-0.0236,-0.0237,-0.0238,-0.0282,-0.0282,0,0,0,0,0,0,-0.006,-0.0069,-0.0096,-0.0099,-0.0086,-0.012,-0.0124,-0.0127,-0.0166,-0.0172,-0.0149,-0.015,-0.0203,-0.0208,-0.0213,-0.0219,-0.0236,-0.0238,-0.0239,-0.0282,-0.0282,-0.0282,0,0,0,0,0,0,-0.0059,-0.0061,-0.0094,-0.0085,-0.0091,-0.012,-0.0122,-0.0127,-0.0137,-0.0171,-0.0177,-0.0153,-0.0204,-0.021,-0.023,-0.0222,-0.0239,-0.0241,-0.0282,-0.0282,-0.0282,-0.0234,0,0,0,0,0,0,-0.0057,-0.0061,-0.0058,-0.0085,-0.0091,-0.0102,-0.0122,-0.0128,-0.0139,-0.0142,-0.0176,-0.0182,-0.0204,-0.0226,-0.0232,-0.0225,-0.0243,-0.0283,-0.0282,-0.0282,-0.0236,-0.0232,-0.0229,0,0,0,0,0,-0.0056,-0.0049,-0.0058,-0.0061,-0.0087,-0.0102,-0.0106,-0.0129,-0.0139,-0.0139,-0.0165,-0.0181,-0.0228,-0.0228,-0.0234,-0.0228,-0.0283,-0.0282,-0.0282,-0.0237,-0.0233,-0.0229,0,0,0,0,0,0,-0.0032,-0.0052,-0.0063,-0.0062,-0.0079,-0.0107,-0.0109,-0.0125,-0.0145,-0.0148,-0.0181,-0.0188,-0.0203,-0.0223,-0.0221,-0.0241,-0.0258,-0.0259,-0.0222,-0.0218,-0.0214,-0.0199,-0.0245,0,0,0,0,0,-0.0025,-0.0026,-0.0049,-0.0048,-0.0055,-0.0081,-0.009,-0.0105,-0.0127,-0.0136,-0.016,-0.0186,-0.0207,-0.0217,-0.024,-0.0249,-0.0265,-0.025,-0.0247,-0.0244,-0.0236,-0.0258,-0.0255,-0.0281,-0.0281,-0.0281,0,0,-0.0016,-0.0027,-0.0028,-0.0043,-0.0058,-0.006,-0.0087,-0.0096,-0.0098,-0.0139,-0.0148,-0.0175,-0.0208,-0.022,-0.0227,-0.0235,-0.0244,-0.0243,-0.024,-0.0234,-0.0257,-0.0255,-0.0252,-0.0281,-0.0281,-0.0281,0,0,0.0005,-0.0006,-0.0,-0.001,-0.0027,-0.0042,-0.0043,-0.0068,-0.0079,-0.0093,-0.0123,-0.0144,-0.0176,-0.0196,-0.021,-0.0202,-0.0227,-0.0211,-0.018,-0.0201,-0.0199,-0.0197,-0.0206,-0.0206,-0.0207,-0.0207,-0.0207,0,0.0018,0.0021,-0.0,0.0003,0.0,-0.0031,-0.0023,-0.0038,-0.0067,-0.0072,-0.0089,-0.0135,-0.0163,-0.0176,-0.0175,-0.0193,-0.0207,-0.0191,-0.0195,-0.0194,-0.0193,-0.0203,-0.0203,-0.0205,-0.0205,-0.0206,-0.0206,0,0.004,0.0043,0.0047,0.0042,0.0037,0.0039,0.0017,0.0011,-0.0007,-0.0026,-0.0045,-0.0085,-0.0111,-0.0125,-0.0148,-0.0155,-0.0167,-0.0189,-0.0202,-0.0188,-0.0199,-0.02,-0.0202,-0.0203,-0.0203,-0.0204,0,0,0.007,0.0065,0.0067,0.0074,0.0059,0.006,0.006,0.0052,0.0057,0.0022,0.0024,-0.002,-0.0046,-0.0064,-0.0097,-0.0116,-0.0123,-0.0146,-0.0148,-0.0148,-0.0162,-0.0154,-0.0155,-0.0148,-0.0148,-0.0148,-0.0169,0,0.0095,0.0114,0.0103,0.0124,0.0134,0.0113,0.0119,0.0107,0.0089,0.0082,0.0038,0.0023,-0.0022,-0.0032,-0.0059,-0.0106,-0.0125,-0.0115,-0.0181,-0.0183,-0.0173,-0.0156,-0.0156,-0.0174,-0.0171,-0.0171,-0.0171,0,0.012,0.0132,0.0156,0.0171,0.0174,0.018,0.0189,0.0189,0.0169,0.0154,0.0126,0.0091,0.0059,0.0017,-0.0051,-0.0043,-0.0096,-0.0136,-0.0138,-0.0148,-0.0177,-0.019,-0.0176,-0.0305,-0.0173,-0.0173,-0.0172,0,0.0153,0.0171,0.0194,0.0197,0.0205,0.0215,0.0219,0.0209,0.0224,0.0197,0.021,0.015,0.0137,0.0059,-0.0016,-0.0038,-0.0085,-0.0129,-0.0172,-0.0172,-0.0192,-0.0194,-0.0305,-0.0178,-0.0178,-0.0178,-0.0178,0,0.0184,0.0205,0.0211,0.0224,0.0261,0.0251,0.0281,0.0277,0.0282,0.032,0.025,0.0279,0.0148,0.0108,0.0014,-0.0064,-0.0063,-0.0157,-0.0175,-0.0175,-0.0175,-0.0305,-0.0381,-0.0179,-0.0179,-0.0179,-0.0179,0,0.0214,0.0216,0.0248,0.0266,0.0276,0.03,0.0331,0.0356,0.0355,0.0406,0.0407,0.0375,0.0331,0.0212,0.0098,-0.0006,-0.017,-0.0128,-0.0109,-0.0126,-0.0302,-0.0375,-0.0501,-0.0557,-0.0191,-0.0191,-0.0191,0,0.0231,0.0248,0.0281,0.0309,0.0318,0.035,0.0379,0.0386,0.0427,0.0487,0.0528,0.0502,0.052,0.0356,0.0158,-0.0004,-0.0139,-0.0132,-0.0183,-0.0302,-0.0398,-0.0459,-0.0501,-0.0193,-0.0193,-0.0193,-0.0192,0,0.0267,0.0275,0.0304,0.0357,0.0393,0.0441,0.0489,0.0538,0.0576,0.0646,0.0748,0.0773,0.062,0.0467,0.0221,0.0084,-0.0233,-0.0136,-0.0274,-0.0413,-0.0474,-0.0538,-0.0184,-0.0192,-0.0192,-0.0192,-0.0192,-0.0192,0.0298,0.0325,0.0362,0.0415,0.0463,0.054,0.06,0.0679,0.0785,0.0924,0.0927,0.1006,0.0735,0.0409,0.0197,-0.0213,-0.0219,-0.0345,-0.0423,-0.0472,-0.0532,-0.0162,-0.0184,-0.0184,-0.0184,-0.0184,-0.0184,0,0.0338,0.0368,0.0419,0.0489,0.0555,0.0571,0.0684,0.0766,0.0926,0.1061,0.1168,0.1091,0.0756,0.0382,-0.0157,-0.0444,-0.0574,-0.0611,-0.0718,-0.0748,-0.0431,-0.0437,-0.0497,-0.0496,-0.0496,-0.0496,-0.0496,-0.0496,0.0363,0.0415,0.0439,0.0554,0.061,0.0717,0.0794,0.0938,0.1058,0.1244,0.1312,0.1336,0.1053,0.0076,-0.0582,-0.074,-0.0957,-0.1003,-0.1097,-0.0908,-0.089,-0.0873,-0.0897,-0.1052,-0.1052,-0.1383,-0.1387,-0.1389]}],[{"header":{"parameterUnit":"m.s-1","parameterCategory":2,"la1":30.2991,"la2":30.254,"lo1":-89.0895,"lo2":-89.0444,"dy":0.0017,"dx":0.0017,"nx":28,"ny":28,"refTime":"2025-08-10T03:00:00:Z","depth":"2","parameterNumber":2,"parameterNumberName":"U-component_of_CURRENTS"},"data":[0,0,0,0,0,0,0,0,0,0,0,0,0,0,0,0,0,0,0,0,0,0,0,0,0,0,0,0,0,0,0,0,0,0,0,0,0,0,0,0,0,0,0,0,0,0,0,0,0,0,0,0,0,0,0,0,0,0,0.1523,0.1524,0,0.1531,0.1531,0.153,0.1533,0.1533,0.1533,0.1533,0.1515,0.1514,0.1513,0,0,0,0,0,0,0,0,0,0,0,0,0,0.1503,0.1503,0.1523,0.1524,0.1524,0.1531,0.1531,0.153,0.1533,0.1533,0.1533,0.1533,0.1515,0.1514,0.1513,0,0,0,0,0,0,0,0,0,0,0,0,0,0.1509,0.1503,0.1523,0.1527,0.1528,0.1531,0.1531,0.153,0.1533,0.1533,0.1533,0.1533,0.1515,0.1514,0.1513,0.1503,0,0,0.151,0.151,0,0,0,0,0,0,0,0,0.1509,0.151,0.1526,0.1527,0.1528,0.1533,0.1517,0.1521,0.1533,0.1529,0.1533,0.1533,0.1519,0.1518,0.1517,0.1502,0.1502,0.151,0.151,0.1509,0.1509,0,0,0,0,0,0,0,0.1508,0.1509,0.1524,0.1527,0.1527,0.1526,0.1527,0.1517,0.1521,0.1529,0.153,0.1534,0.1519,0.1517,0.1516,0.1501,0.151,0.1509,0.1509,0.1508,0.1502,0.1502,0,0,0,0,0,0,0.1512,0.1509,0.1524,0.1525,0.1521,0.1526,0.1527,0.1529,0.1521,0.1521,0.1533,0.1534,0.1519,0.1517,0.1515,0.1527,0.1509,0.1508,0.1508,0.1502,0.1502,0.1503,0,0,0,0,0,0,0.1511,0.1513,0.1524,0.1519,0.152,0.1527,0.1529,0.1529,0.1532,0.1525,0.1524,0.1536,0.1519,0.1517,0.1515,0.1526,0.1508,0.1507,0.1501,0.1502,0.1502,0.1535,0,0,0,0,0,0,0.151,0.1512,0.1514,0.1519,0.1521,0.1531,0.1529,0.1529,0.1535,0.1535,0.1527,0.1526,0.1519,0.1516,0.1514,0.1524,0.1506,0.1501,0.1502,0.1502,0.1534,0.1537,0.154,0,0,0,0,0,0.151,0.1511,0.1514,0.1516,0.1523,0.1531,0.1532,0.1536,0.1535,0.1538,0.1534,0.1526,0.1519,0.1516,0.1513,0.1523,0.15,0.1501,0.1502,0.1533,0.1536,0.154,0,0,0,0,0,0,0.15,0.1512,0.1515,0.1519,0.1528,0.1532,0.1535,0.1537,0.1537,0.1537,0.1528,0.1526,0.153,0.152,0.1516,0.1523,0.1509,0.151,0.1534,0.1537,0.154,0.1547,0.1506,0,0,0,0,0,0.15,0.1505,0.1516,0.152,0.1525,0.153,0.1534,0.1538,0.1539,0.1539,0.1534,0.153,0.153,0.1529,0.1524,0.1524,0.1548,0.153,0.1533,0.1536,0.1539,0.1579,0.1587,0.1505,0.1505,0.1505,0,0,0.1496,0.1504,0.1507,0.1518,0.1524,0.1532,0.1532,0.154,0.1548,0.1536,0.154,0.1538,0.1532,0.1537,0.1538,0.1531,0.1577,0.1537,0.1539,0.1541,0.1581,0.1589,0.1596,0.1506,0.1506,0.1506,0,0,0.1493,0.1501,0.1505,0.1514,0.1528,0.1534,0.1538,0.1546,0.1552,0.1556,0.1554,0.156,0.1551,0.1557,0.1557,0.1572,0.1592,0.1569,0.159,0.1629,0.1636,0.1643,0.1714,0.1727,0.1571,0.1571,0.1571,0,0.1488,0.1497,0.1507,0.1516,0.1526,0.1536,0.1545,0.1552,0.1558,0.1568,0.1561,0.1571,0.1563,0.1582,0.1588,0.158,0.1616,0.1578,0.1635,0.1641,0.1648,0.1719,0.1732,0.1573,0.1573,0.1573,0.1572,0,0.1489,0.1498,0.1503,0.1519,0.153,0.154,0.1556,0.1566,0.1573,0.1584,0.1604,0.16,0.1611,0.1609,0.1601,0.1641,0.166,0.1635,0.1629,0.1658,0.1731,0.1745,0.1575,0.1575,0.1574,0.1574,0,0,0.1469,0.1498,0.1499,0.1511,0.1534,0.1544,0.1563,0.1587,0.1608,0.1615,0.1647,0.1645,0.1654,0.1654,0.1652,0.168,0.1761,0.1678,0.1679,0.1755,0.1881,0.1888,0.1904,0.1749,0.1751,0.1752,0.1927,0,0.1466,0.1483,0.1501,0.1519,0.153,0.1554,0.1574,0.1599,0.1621,0.1654,0.1669,0.1692,0.1669,0.1682,0.1707,0.1747,0.1793,0.1718,0.1835,0.1839,0.1846,0.1917,0.1747,0.1886,0.194,0.1942,0.1944,0,0.1458,0.1474,0.149,0.1528,0.1536,0.155,0.1593,0.1614,0.1665,0.1685,0.1717,0.1735,0.1786,0.1753,0.1852,0.1809,0.185,0.1877,0.1884,0.1885,0.187,0.1858,0.1908,0.1966,0.1965,0.1963,0.1961,0,0.1436,0.1466,0.148,0.1491,0.1533,0.155,0.1575,0.1622,0.1656,0.1712,0.1758,0.1801,0.1856,0.1894,0.1963,0.1914,0.2088,0.2024,0.2076,0.2078,0.1952,0.194,0.2098,0.2098,0.2097,0.2097,0.2096,0,0.1425,0.1435,0.1471,0.148,0.1506,0.1541,0.1577,0.1611,0.1677,0.1737,0.1777,0.1848,0.1894,0.1995,0.2016,0.212,0.2141,0.2107,0.2125,0.1962,0.195,0.2016,0.2004,0.2103,0.2102,0.21,0.2099,0,0.1396,0.1419,0.1437,0.148,0.1494,0.1513,0.1577,0.1611,0.1682,0.1768,0.1797,0.1921,0.2059,0.213,0.2233,0.2216,0.2286,0.2314,0.2144,0.2137,0.2236,0.2224,0.2376,0.2378,0.238,0.2381,0.2382,0,0.1382,0.1388,0.1428,0.1445,0.1464,0.1497,0.1528,0.1596,0.1648,0.1816,0.1872,0.2042,0.215,0.2334,0.2344,0.2419,0.241,0.2287,0.2137,0.2264,0.2266,0.2251,0.2238,0.2001,0.1999,0.1997,0.1996,0,0.1359,0.1371,0.1391,0.1423,0.1452,0.1485,0.1543,0.1583,0.1691,0.1791,0.1952,0.2055,0.2243,0.2249,0.2354,0.2352,0.2249,0.2254,0.2449,0.1951,0.1922,0.192,0.1916,0.198,0.1981,0.1982,0.1983,0.1984,0.1339,0.1345,0.1374,0.1403,0.1438,0.1476,0.1493,0.1578,0.1669,0.1794,0.1931,0.2028,0.209,0.2161,0.2145,0.2127,0.2256,0.2124,0.2124,0.2127,0.2047,0.2021,0.2085,0.2087,0.2089,0.209,0.2092,0,0.1311,0.1328,0.1355,0.1388,0.1411,0.1442,0.1506,0.1523,0.1615,0.1728,0.1838,0.1763,0.1813,0.1878,0.1831,0.1852,0.177,0.1775,0.1634,0.1655,0.1673,0.1561,0.1475,0.1472,0.147,0.1468,0,0,0.1299,0.1307,0.1323,0.135,0.1376,0.1389,0.1412,0.1457,0.1521,0.1555,0.1579,0.1715,0.1824,0.1601,0.1607,0.1532,0.1564,0.1478,0.1985,0.1841,0.1854,0.1905,0.1763,0,0,0,0,0]},{"header":{"parameterUnit":"m.s-1","parameterCategory":2,"la1":30.2991,"la2":30.254,"lo1":-89.0895,"lo2":-89.0444,"dy":0.0017,"dx":0.0017,"nx":28,"ny":28,"refTime":"2025-08-10T03:00:00:Z","depth":"2","parameterNumber":3,"parameterNumberName":"V-component_of_CURRENTS"},"data":[0,0,0,0,0,0,0,0,0,0,0,0,0,0,0,0,0,0,0,0,0,0,0,0,0,0,0,0,0,0,0,0,0,0,0,0,0,0,0,0,0,0,0,0,0,0,0,0,0,0,0,0,0,0,0,0,0,0,-0.0131,-0.0132,0,-0.0178,-0.0178,-0.0179,-0.0208,-0.0208,-0.0208,-0.0209,-0.0268,-0.027,-0.0271,0,0,0,0,0,0,0,0,0,0,0,0,0,-0.0098,-0.0098,-0.0131,-0.0132,-0.0132,-0.0178,-0.0178,-0.0179,-0.0208,-0.0208,-0.0209,-0.0209,-0.0268,-0.0269,-0.0271,0,0,0,0,0,0,0,0,0,0,0,0,0,-0.0125,-0.0098,-0.0131,-0.0152,-0.0154,-0.0178,-0.0178,-0.0179,-0.0208,-0.0208,-0.0209,-0.0209,-0.0267,-0.0269,-0.0271,-0.0281,0,0,-0.0278,-0.0279,0,0,0,0,0,0,0,0,-0.0124,-0.0127,-0.0148,-0.0151,-0.0153,-0.0187,-0.0189,-0.0214,-0.0208,-0.0188,-0.0209,-0.0209,-0.0242,-0.0246,-0.0255,-0.0284,-0.0287,-0.0278,-0.028,-0.0281,-0.0281,0,0,0,0,0,0,0,-0.0122,-0.0125,-0.015,-0.0149,-0.0152,-0.017,-0.0173,-0.0194,-0.0214,-0.019,-0.0192,-0.0197,-0.0243,-0.0253,-0.0257,-0.0287,-0.0278,-0.028,-0.0282,-0.0283,-0.033,-0.033,0,0,0,0,0,0,-0.0114,-0.0123,-0.0149,-0.0151,-0.0138,-0.017,-0.0174,-0.0176,-0.0213,-0.0219,-0.0196,-0.0198,-0.0249,-0.0254,-0.0259,-0.0267,-0.0281,-0.0283,-0.0284,-0.033,-0.033,-0.033,0,0,0,0,0,0,-0.0113,-0.0115,-0.0147,-0.0138,-0.0143,-0.017,-0.0172,-0.0177,-0.0186,-0.0218,-0.0224,-0.02,-0.0249,-0.0256,-0.0275,-0.027,-0.0284,-0.0286,-0.033,-0.033,-0.033,-0.0288,0,0,0,0,0,0,-0.0111,-0.0115,-0.0113,-0.0137,-0.0144,-0.0156,-0.0172,-0.0178,-0.0188,-0.0191,-0.0223,-0.0229,-0.025,-0.0272,-0.0278,-0.0273,-0.0287,-0.033,-0.033,-0.033,-0.029,-0.0287,-0.0284,0,0,0,0,0,-0.011,-0.0105,-0.0112,-0.0115,-0.014,-0.0155,-0.016,-0.018,-0.0188,-0.0189,-0.0213,-0.0228,-0.0275,-0.0274,-0.028,-0.0277,-0.033,-0.033,-0.033,-0.0291,-0.0287,-0.0284,0,0,0,0,0,0,-0.0089,-0.0108,-0.0117,-0.0117,-0.0133,-0.016,-0.0163,-0.0177,-0.0196,-0.0198,-0.0229,-0.0236,-0.0252,-0.0271,-0.0268,-0.029,-0.0305,-0.0306,-0.0273,-0.027,-0.0267,-0.0252,-0.0289,0,0,0,0,0,-0.0083,-0.0084,-0.0106,-0.0106,-0.0112,-0.0137,-0.0145,-0.0159,-0.0179,-0.0188,-0.0211,-0.0235,-0.0257,-0.0267,-0.0289,-0.0301,-0.0316,-0.0303,-0.03,-0.0298,-0.0291,-0.0312,-0.031,-0.0329,-0.0329,-0.0329,0,0,-0.0075,-0.0085,-0.0086,-0.0102,-0.0115,-0.0119,-0.0142,-0.0151,-0.0155,-0.0191,-0.0202,-0.0227,-0.0258,-0.0272,-0.028,-0.0286,-0.03,-0.0298,-0.0295,-0.0289,-0.0312,-0.031,-0.0308,-0.0329,-0.0329,-0.0329,0,0,-0.0058,-0.0068,-0.0063,-0.0073,-0.009,-0.0104,-0.0104,-0.0129,-0.0139,-0.0154,-0.0181,-0.0201,-0.0233,-0.0253,-0.0267,-0.0263,-0.0285,-0.0271,-0.0244,-0.0265,-0.0263,-0.0262,-0.0272,-0.0273,-0.0268,-0.0268,-0.0268,0,-0.0047,-0.0045,-0.0064,-0.0063,-0.0066,-0.0094,-0.0088,-0.0104,-0.0131,-0.0137,-0.015,-0.0195,-0.0223,-0.0239,-0.0238,-0.0255,-0.0268,-0.0253,-0.026,-0.0259,-0.0259,-0.027,-0.0271,-0.0266,-0.0266,-0.0267,-0.0267,0,-0.0029,-0.0027,-0.0025,-0.003,-0.0036,-0.0036,-0.0057,-0.0063,-0.0079,-0.0097,-0.0117,-0.0155,-0.0179,-0.0193,-0.0215,-0.0225,-0.0235,-0.0254,-0.0265,-0.0254,-0.0267,-0.0268,-0.0263,-0.0264,-0.0265,-0.0265,0,0,-0.0003,-0.001,-0.0008,-0.0002,-0.0017,-0.0017,-0.002,-0.003,-0.0025,-0.0059,-0.0057,-0.0101,-0.0123,-0.0141,-0.0172,-0.0192,-0.0201,-0.0217,-0.0219,-0.0221,-0.0239,-0.026,-0.0264,-0.0223,-0.0223,-0.0223,-0.0247,0,0.0018,0.0032,0.0021,0.0039,0.0046,0.0027,0.0031,0.0018,0.0002,-0.0005,-0.0047,-0.0061,-0.0103,-0.0112,-0.0139,-0.0184,-0.0204,-0.0192,-0.0255,-0.0257,-0.0272,-0.0266,-0.0246,-0.0267,-0.0249,-0.0249,-0.0249,0,0.0039,0.0048,0.0067,0.0079,0.0082,0.0087,0.0095,0.0093,0.0073,0.006,0.0034,0.0002,-0.0031,-0.0068,-0.0137,-0.0127,-0.0178,-0.0216,-0.0218,-0.0253,-0.0281,-0.0278,-0.0271,-0.0252,-0.0252,-0.0252,-0.0251,0,0.0069,0.0082,0.0101,0.0104,0.011,0.0119,0.0123,0.0113,0.0126,0.0101,0.0115,0.0055,0.0044,-0.0031,-0.0108,-0.0124,-0.0179,-0.0213,-0.028,-0.0281,-0.0283,-0.0285,-0.0262,-0.0262,-0.0262,-0.0262,-0.0262,0,0.0095,0.0113,0.0118,0.0129,0.0163,0.0153,0.0182,0.0178,0.0182,0.0217,0.0153,0.0175,0.0054,0.0009,-0.0082,-0.0175,-0.0161,-0.027,-0.029,-0.0269,-0.0269,-0.0273,-0.0274,-0.0263,-0.0263,-0.0263,-0.0263,0,0.0123,0.0123,0.0151,0.0167,0.0177,0.02,0.023,0.0253,0.0253,0.03,0.0301,0.0266,0.0209,0.0092,-0.0022,-0.0127,-0.0225,-0.0263,-0.0225,-0.0241,-0.0322,-0.032,-0.0348,-0.0349,-0.035,-0.0351,-0.0351,0,0.0137,0.0152,0.0182,0.0208,0.0217,0.0248,0.0276,0.0284,0.0322,0.0371,0.0408,0.037,0.0356,0.0175,-0.0014,-0.0184,-0.0205,-0.0289,-0.0328,-0.0314,-0.0331,-0.0328,-0.0326,-0.031,-0.031,-0.031,-0.031,0,0.0169,0.0177,0.0202,0.0253,0.0288,0.0333,0.038,0.0424,0.0458,0.0511,0.0581,0.0576,0.0407,0.0237,-0.0013,-0.0134,-0.0268,-0.03,-0.0287,-0.0295,-0.0281,-0.0297,-0.0295,-0.0311,-0.0311,-0.0311,-0.0311,-0.0311,0.0196,0.022,0.0254,0.0305,0.0353,0.0424,0.0476,0.0539,0.0622,0.0704,0.0697,0.0695,0.0482,0.0166,-0.0038,-0.0264,-0.027,-0.0359,-0.0357,-0.0355,-0.0351,-0.0339,-0.0379,-0.0379,-0.0379,-0.0379,-0.0379,0,0.0231,0.0258,0.0306,0.0371,0.0433,0.0454,0.0553,0.0609,0.0724,0.0777,0.082,0.0638,0.0448,0.0224,-0.0111,-0.0327,-0.0343,-0.0388,-0.0354,-0.0352,-0.035,-0.0344,-0.0371,-0.0372,-0.0372,-0.0373,0,0,0.0251,0.0298,0.0319,0.0425,0.0482,0.0578,0.0643,0.073,0.079,0.0832,0.0831,0.0777,0.0517,0.0278,-0.0,-0.0176,-0.022,-0.0219,-0.0207,-0.0133,-0.0128,-0.0318,-0.0305,0,0,0,0,0]}],[{"header":{"parameterUnit":"m.s-1","parameterCategory":2,"la1":30.2991,"la2":30.254,"lo1":-89.0895,"lo2":-89.0444,"dy":0.0017,"dx":0.0017,"nx":28,"ny":28,"refTime":"2025-08-10T03:00:00:Z","depth":"4","parameterNumber":2,"parameterNumberName":"U-component_of_CURRENTS"},"data":[0,0,0,0,0,0,0,0,0,0,0,0,0,0,0,0,0,0,0,0,0,0,0,0,0,0,0,0,0,0,0,0,0,0,0,0,0,0,0,0,0,0,0,0,0,0,0,0,0,0,0,0,0,0,0,0,0,0,0.1061,0.1061,0,0.1103,0.1104,0.1104,0.1144,0.1145,0.1145,0.1146,0.1193,0.1193,0.1194,0,0,0,0,0,0,0,0,0,0,0,0,0,0.0998,0.0999,0.1061,0.1061,0.1062,0.1103,0.1104,0.1104,0.1144,0.1145,0.1146,0.1146,0.1192,0.1193,0.1194,0,0,0,0,0,0,0,0,0,0,0,0,0,0.103,0.0999,0.1061,0.1088,0.1091,0.1103,0.1104,0.1104,0.1144,0.1145,0.1146,0.1147,0.1192,0.1193,0.1194,0.1182,0,0,0.1197,0.1198,0,0,0,0,0,0,0,0,0.1028,0.1032,0.1083,0.1086,0.1089,0.112,0.1099,0.1131,0.1144,0.1122,0.1146,0.1147,0.1169,0.1172,0.1176,0.1184,0.1186,0.1197,0.1198,0.1198,0.1199,0,0,0,0,0,0,0,0.1026,0.1031,0.1076,0.1084,0.1087,0.1093,0.1098,0.1105,0.1139,0.1124,0.1128,0.1134,0.1171,0.1175,0.1178,0.1187,0.1197,0.1198,0.1199,0.1199,0.1254,0.1254,0,0,0,0,0,0,0.1023,0.1029,0.1075,0.1078,0.1062,0.1093,0.1099,0.1108,0.1139,0.1145,0.1133,0.1136,0.1173,0.1176,0.1179,0.1229,0.1198,0.1199,0.12,0.1253,0.1254,0.1255,0,0,0,0,0,0,0.1022,0.1027,0.1073,0.1055,0.1061,0.1093,0.1103,0.1109,0.1137,0.1146,0.1152,0.1159,0.1174,0.1178,0.1208,0.1229,0.12,0.1201,0.1252,0.1253,0.1254,0.1289,0,0,0,0,0,0,0.102,0.1026,0.1042,0.1055,0.1062,0.1096,0.1103,0.1109,0.1139,0.1143,0.1169,0.1173,0.1175,0.1206,0.1209,0.123,0.1201,0.1251,0.1252,0.1254,0.1287,0.1291,0.1295,0,0,0,0,0,0.1017,0.1032,0.1042,0.1048,0.1079,0.1096,0.1101,0.1125,0.1139,0.1154,0.1174,0.1174,0.1218,0.1208,0.121,0.1232,0.125,0.1252,0.1254,0.1285,0.129,0.1295,0,0,0,0,0,0,0.1012,0.1037,0.1049,0.1071,0.109,0.1104,0.1123,0.1137,0.1163,0.1176,0.1183,0.1188,0.1222,0.1221,0.121,0.1253,0.1234,0.1237,0.1257,0.1262,0.1266,0.1264,0.1202,0,0,0,0,0,0.1017,0.1039,0.1057,0.1078,0.1089,0.111,0.1124,0.114,0.116,0.1175,0.1192,0.1211,0.1227,0.1241,0.1252,0.1275,0.1281,0.1291,0.1295,0.1299,0.13,0.1328,0.1335,0.1261,0.1261,0.1261,0,0,0.1021,0.1039,0.1052,0.1079,0.1097,0.1113,0.1122,0.115,0.1169,0.1174,0.1213,0.1227,0.1236,0.1264,0.1278,0.127,0.1325,0.1301,0.1304,0.1303,0.1331,0.1338,0.1345,0.1262,0.1262,0.1262,0,0,0.1031,0.1056,0.1074,0.1091,0.1122,0.1133,0.1146,0.1172,0.1194,0.1225,0.1236,0.1263,0.1288,0.13,0.1307,0.134,0.1345,0.1348,0.137,0.1399,0.1405,0.1411,0.1433,0.1441,0.1352,0.1352,0.1352,0,0.1036,0.106,0.1082,0.11,0.1118,0.1143,0.1162,0.1182,0.1217,0.1237,0.1245,0.1293,0.1303,0.1334,0.1348,0.1349,0.1366,0.1351,0.1405,0.141,0.1415,0.1437,0.1445,0.1354,0.1353,0.1353,0.1353,0,0.105,0.1077,0.109,0.1122,0.1142,0.1165,0.1191,0.122,0.1249,0.1269,0.1316,0.1332,0.1361,0.137,0.137,0.1413,0.1414,0.1406,0.1391,0.1425,0.1446,0.1453,0.1356,0.1356,0.1355,0.1355,0,0,0.1039,0.109,0.1097,0.1117,0.1158,0.1173,0.121,0.1246,0.1278,0.1315,0.1355,0.1385,0.1404,0.1412,0.1422,0.1446,0.1498,0.1447,0.1447,0.1468,0.1566,0.1483,0.1483,0.1506,0.1507,0.1509,0.1568,0,0.1045,0.1082,0.1107,0.1144,0.1164,0.1199,0.1229,0.1268,0.1305,0.1351,0.1381,0.1422,0.1417,0.1443,0.1466,0.1493,0.1519,0.1483,0.1531,0.1532,0.1453,0.1488,0.1513,0.1574,0.1575,0.1577,0.1578,0,0.1046,0.1074,0.1111,0.116,0.1173,0.12,0.1257,0.1289,0.1351,0.1384,0.143,0.1457,0.1507,0.1495,0.1557,0.1539,0.1556,0.157,0.1572,0.1485,0.1462,0.1532,0.1591,0.159,0.1589,0.1588,0.1587,0,0.1021,0.1074,0.1106,0.1123,0.118,0.121,0.1245,0.1304,0.1339,0.1414,0.1452,0.1506,0.155,0.1579,0.1611,0.1596,0.1674,0.1653,0.1591,0.1586,0.1628,0.1621,0.1692,0.1692,0.1692,0.1692,0.1692,0,0.1008,0.1036,0.1102,0.1119,0.116,0.1206,0.1255,0.13,0.1369,0.1409,0.1472,0.151,0.1577,0.1625,0.1636,0.1639,0.1697,0.16,0.1596,0.1642,0.1636,0.1634,0.1626,0.1694,0.1694,0.1693,0.1693,0,0.0973,0.1018,0.1057,0.1126,0.115,0.1181,0.1257,0.1286,0.1364,0.1421,0.1451,0.1541,0.1604,0.1654,0.1712,0.1668,0.1679,0.1665,0.1721,0.1719,0.1566,0.156,0.1595,0.1593,0.1591,0.1589,0.1588,0,0.0957,0.0976,0.1053,0.1076,0.1111,0.1164,0.1194,0.1275,0.1304,0.1422,0.144,0.1541,0.1589,0.1607,0.1663,0.1685,0.1665,0.1655,0.1592,0.1563,0.1557,0.1554,0.155,0.1584,0.1584,0.1583,0.1583,0,0.0924,0.0962,0.0995,0.104,0.1078,0.1109,0.1162,0.1178,0.1266,0.1353,0.1399,0.1438,0.1511,0.1555,0.1592,0.1598,0.1649,0.1633,0.1636,0.1577,0.155,0.1545,0.1544,0.1576,0.1577,0.1577,0.1578,0,0.0902,0.0915,0.0962,0.0993,0.1035,0.104,0.1073,0.111,0.1152,0.1278,0.1293,0.1401,0.1495,0.1511,0.154,0.1549,0.152,0.1457,0.1469,0.1477,0.141,0.1358,0.1326,0,0,0,0,0,0.0873,0.0883,0.0909,0.0932,0.0966,0.0989,0.1044,0.1078,0.1167,0.1169,0.1228,0.1287,0.1342,0.14,0.1387,0.1491,0.1525,0.1467,0.1458,0.1536,0.1544,0.1476,0,0,0,0,0,0,0.0852,0.0883,0.089,0.0873,0.0877,0.0899,0.0932,0.0988,0.0993,0.1095,0.1135,0.1214,0.1292,0.1346,0.1367,0.1384,0.1351,0.1537,0.1534,0.1531,0.1539,0.1545,0.1478,0,0,0,0,0]},{"header":{"parameterUnit":"m.s-1","parameterCategory":2,"la1":30.2991,"la2":30.254,"lo1":-89.0895,"lo2":-89.0444,"dy":0.0017,"dx":0.0017,"nx":28,"ny":28,"refTime":"2025-08-10T03:00:00:Z","depth":"4","parameterNumber":3,"parameterNumberName":"V-component_of_CURRENTS"},"data":[0,0,0,0,0,0,0,0,0,0,0,0,0,0,0,0,0,0,0,0,0,0,0,0,0,0,0,0,0,0,0,0,0,0,0,0,0,0,0,0,0,0,0,0,0,0,0,0,0,0,0,0,0,0,0,0,0,0,-0.0089,-0.0089,0,-0.0123,-0.0123,-0.0124,-0.0144,-0.0144,-0.0144,-0.0144,-0.0199,-0.02,-0.0201,0,0,0,0,0,0,0,0,0,0,0,0,0,-0.0063,-0.0063,-0.0089,-0.0089,-0.009,-0.0123,-0.0123,-0.0124,-0.0144,-0.0144,-0.0144,-0.0144,-0.0198,-0.02,-0.0202,0,0,0,0,0,0,0,0,0,0,0,0,0,-0.0084,-0.0063,-0.0089,-0.0103,-0.0105,-0.0123,-0.0123,-0.0124,-0.0144,-0.0144,-0.0144,-0.0144,-0.0198,-0.02,-0.0202,-0.0213,0,0,-0.0208,-0.0209,0,0,0,0,0,0,0,0,-0.0082,-0.0085,-0.0101,-0.0102,-0.0104,-0.0129,-0.0134,-0.0155,-0.0144,-0.0129,-0.0144,-0.0144,-0.0177,-0.0181,-0.0187,-0.0216,-0.0218,-0.0208,-0.021,-0.0211,-0.0211,0,0,0,0,0,0,0,-0.0081,-0.0083,-0.0103,-0.0101,-0.0103,-0.0116,-0.0119,-0.0138,-0.0153,-0.0131,-0.0132,-0.0135,-0.0178,-0.0185,-0.0189,-0.0219,-0.0208,-0.021,-0.0211,-0.0212,-0.0268,-0.0268,0,0,0,0,0,0,-0.0075,-0.0082,-0.0102,-0.0104,-0.0093,-0.0116,-0.0119,-0.0121,-0.0152,-0.0157,-0.0135,-0.0136,-0.0181,-0.0186,-0.0191,-0.021,-0.0211,-0.0213,-0.0214,-0.0268,-0.0268,-0.0268,0,0,0,0,0,0,-0.0074,-0.0076,-0.01,-0.0093,-0.0097,-0.0116,-0.0118,-0.0122,-0.0131,-0.0156,-0.0161,-0.0141,-0.0182,-0.0188,-0.0209,-0.0212,-0.0213,-0.0215,-0.0267,-0.0268,-0.0268,-0.0246,0,0,0,0,0,0,-0.0073,-0.0076,-0.0077,-0.0093,-0.0097,-0.0111,-0.0118,-0.0122,-0.0133,-0.0134,-0.0162,-0.0167,-0.0182,-0.0206,-0.0212,-0.0215,-0.0217,-0.0267,-0.0268,-0.0268,-0.0247,-0.0246,-0.0245,0,0,0,0,0,-0.0072,-0.0073,-0.0076,-0.0079,-0.0098,-0.0111,-0.0114,-0.0128,-0.0133,-0.0137,-0.0156,-0.0167,-0.0212,-0.0208,-0.0214,-0.0219,-0.0267,-0.0268,-0.0268,-0.0247,-0.0246,-0.0245,0,0,0,0,0,0,-0.0064,-0.0075,-0.008,-0.0084,-0.0096,-0.0114,-0.012,-0.0129,-0.0146,-0.0148,-0.0171,-0.0177,-0.0197,-0.0212,-0.0206,-0.0236,-0.0241,-0.0243,-0.0223,-0.0223,-0.0222,-0.021,-0.0219,0,0,0,0,0,-0.0062,-0.0064,-0.0078,-0.0082,-0.0087,-0.0103,-0.0111,-0.0119,-0.0136,-0.0144,-0.0163,-0.0184,-0.0204,-0.0215,-0.0235,-0.0252,-0.0261,-0.0259,-0.0258,-0.0257,-0.0252,-0.0269,-0.0269,-0.027,-0.027,-0.027,0,0,-0.006,-0.0066,-0.0068,-0.008,-0.009,-0.0096,-0.0108,-0.0118,-0.0124,-0.0148,-0.0163,-0.0183,-0.0208,-0.0226,-0.0236,-0.0238,-0.0262,-0.0258,-0.0257,-0.0252,-0.0269,-0.0269,-0.0269,-0.027,-0.027,-0.027,0,0,-0.0055,-0.0062,-0.0062,-0.007,-0.0083,-0.0092,-0.0094,-0.0112,-0.0121,-0.0138,-0.0156,-0.0176,-0.0206,-0.0223,-0.0236,-0.0242,-0.0257,-0.0251,-0.0238,-0.0254,-0.0254,-0.0254,-0.0264,-0.0265,-0.025,-0.025,-0.025,0,-0.0052,-0.0054,-0.0065,-0.0068,-0.0071,-0.0089,-0.0089,-0.0102,-0.0125,-0.013,-0.0139,-0.018,-0.0204,-0.0223,-0.0226,-0.024,-0.0249,-0.0238,-0.0252,-0.0252,-0.0252,-0.0263,-0.0265,-0.0249,-0.0249,-0.0249,-0.025,0,-0.0048,-0.005,-0.0051,-0.0057,-0.0062,-0.0066,-0.0081,-0.0089,-0.0101,-0.0114,-0.0135,-0.0165,-0.0187,-0.0201,-0.0217,-0.0232,-0.0238,-0.0248,-0.0251,-0.0251,-0.0263,-0.0265,-0.0248,-0.0248,-0.0249,-0.0249,0,0,-0.0039,-0.0046,-0.0046,-0.0042,-0.0055,-0.0057,-0.0064,-0.0074,-0.0072,-0.0101,-0.0103,-0.0144,-0.0158,-0.0174,-0.0197,-0.0215,-0.023,-0.0231,-0.0232,-0.0236,-0.0261,-0.0268,-0.027,-0.0242,-0.0242,-0.0242,-0.0268,0,-0.0032,-0.0028,-0.0035,-0.0028,-0.0027,-0.0038,-0.0038,-0.0049,-0.0062,-0.0069,-0.0103,-0.0116,-0.0149,-0.0155,-0.018,-0.0215,-0.0234,-0.0221,-0.0266,-0.0267,-0.0269,-0.0273,-0.0243,-0.0269,-0.027,-0.027,-0.027,0,-0.0025,-0.0021,-0.0014,-0.0006,-0.0005,-0.0003,0.0002,-0.0002,-0.0018,-0.0027,-0.005,-0.0072,-0.0104,-0.0129,-0.0189,-0.0179,-0.0218,-0.0247,-0.0249,-0.0262,-0.0277,-0.0272,-0.0274,-0.0274,-0.0273,-0.0273,-0.0273,0,-0.0009,-0.0005,0.0005,0.0005,0.0009,0.0015,0.0017,0.001,0.0017,0.0001,0.0008,-0.0039,-0.0052,-0.0109,-0.0177,-0.018,-0.024,-0.0252,-0.0294,-0.0295,-0.029,-0.029,-0.0293,-0.0293,-0.0292,-0.0292,-0.0292,0,0.0002,0.0011,0.0015,0.0021,0.0042,0.0036,0.0056,0.0053,0.0056,0.0072,0.0032,0.0036,-0.0047,-0.0092,-0.016,-0.0233,-0.023,-0.029,-0.0303,-0.0281,-0.0279,-0.0292,-0.0291,-0.0293,-0.0293,-0.0293,-0.0293,0,0.0015,0.0016,0.003,0.0041,0.0049,0.0063,0.0087,0.0102,0.0103,0.0125,0.0125,0.0091,0.0031,-0.0055,-0.0145,-0.0204,-0.0277,-0.0305,-0.027,-0.0281,-0.0323,-0.0322,-0.0347,-0.0347,-0.0347,-0.0348,-0.0348,0,0.0021,0.0029,0.0048,0.0063,0.0069,0.0091,0.011,0.0121,0.0143,0.016,0.0176,0.0132,0.0095,-0.0026,-0.0131,-0.0261,-0.0285,-0.032,-0.0329,-0.0319,-0.0329,-0.0327,-0.0325,-0.0349,-0.0349,-0.0349,-0.0349,0,0.0035,0.0041,0.0054,0.0082,0.0105,0.0134,0.0165,0.019,0.021,0.0216,0.0229,0.0168,0.0099,-0.0013,-0.0119,-0.0214,-0.0295,-0.0324,-0.0324,-0.0333,-0.0322,-0.0331,-0.0328,-0.035,-0.035,-0.035,-0.035,0,0.0047,0.006,0.0076,0.0102,0.0131,0.0168,0.0185,0.0217,0.0242,0.0268,0.0269,0.0196,0.0153,0.0011,-0.0086,-0.0184,-0.021,-0.0239,-0.0243,-0.0243,-0.0215,-0.0187,-0.0181,0,0,0,0,0,0.0058,0.0073,0.0096,0.0124,0.015,0.017,0.0218,0.0234,0.0263,0.0283,0.0281,0.022,0.0089,0.0031,-0.0066,-0.0114,-0.0244,-0.0233,-0.0284,-0.0358,-0.0356,-0.0343,0,0,0,0,0,0,0.0063,0.0087,0.0097,0.0134,0.0155,0.0191,0.0223,0.0245,0.0261,0.0279,0.0213,0.0191,0.0059,0.0143,-0.0069,-0.01,-0.0146,-0.0294,-0.0296,-0.0359,-0.0357,-0.0356,-0.0341,0,0,0,0,0]}]]